Terminal Aerodrome Forecast
Issued by NWS Mt. Holly, NJ

Home | Current Version | Previous Version | Text Only | Print | Product List | Glossary On
Versions: 1 2 3 4 5 6 7 8 9 10 11 12 13 14 15 16 17 18 19 20 21 22 23 24 25
000
FTUS41 KPHI 262300
TAFACY
TAF
KACY 262325Z 2700/2724 03017G25KT 4SM -SN OVC008
      TEMPO 2700/2702 2SM -SN BR
     FM270200 02020G30KT 3/4SM -SN OVC003
     FM271800 35018G29KT 3SM -SN BLSN OVC009
     FM272100 35018G28KT 3SM -SN BLSN OVC015
     FM272300 32015G26KT P6SM SCT025 BKN080=

USA.gov is the U.S. government's official web portal to all federal, state and local government web resources and services.